Weather History for KGUC - April, 2014

Change the Weather History Date:

Friday, April 18, 2014

  Actual Average Record
Temperature  
Mean Temperature 45 °F -  
Max Temperature 66 °F 51 °F 69 °F (2001)
Min Temperature 24 °F 23 °F 15 °F (2013)
Degree Days  
Heating Degree Days 20    
Moisture  
Dew Point 22 °F    
Average Humidity 45    
Maximum Humidity 80    
Minimum Humidity 18    
Precipitation  
Precipitation 0.00 in - - ()
Sea Level Pressure  
Sea Level Pressure 30.19 in    
Wind  
Wind Speed 2 mph (WSW)    
Max Wind Speed 14 mph    
Max Gust Speed 32 mph    
Visibility 10 miles    
Events      
Averages and records for this station are not official NWS values.
T = Trace of Precipitation, MM = Missing Value Source: NWS Daily Summary

Daily Weather History Graph

Daily Weather History Graph

Search for Another Location

Airport or City:

Trip Planner

Search our weather history database for the weather conditions in past years. The results will help you decide how hot, cold, wet, or windy it might be!

Date:

Astronomy

Apr. 18, 2014 Rise Set
Actual Time 6:27 AM MDT 7:47 PM MDT
Civil Twilight 5:59 AM MDT 8:14 PM MDT
Nautical Twilight 5:26 AM MDT 8:48 PM MDT
Astronomical Twilight 4:52 AM MDT 9:22 PM MDT
Moon 11:33 PM MDT (4/18) 8:53 AM MDT (4/18)
Length of Visible Light 14h 15m
Length of Day
13h 19m
Waning Gibbous, 86% of the Moon is Illuminated
Apr 18
Waning Gibbous
Apr 22
Last Quarter
Apr 29
New
May 6
First Quarter
May 14
Full

Hourly Weather History & Observations

Time (MDT) Temp. Windchill Dew Point Humidity Pressure Visibility Wind Dir Wind Speed Gust Speed Precip Events Conditions
12:15 AM 33.8 °F - 21.2 °F 60% 30.23 in 10.0 mi Calm Calm - N/A   Clear
12:35 AM 33.8 °F 29.6 °F 21.2 °F 60% 30.24 in 10.0 mi ENE 4.6 mph - N/A   Clear
12:55 AM 30.2 °F - 21.2 °F 69% 30.25 in 10.0 mi Calm Calm - N/A   Clear
1:15 AM 33.8 °F - 21.2 °F 60% 30.25 in 10.0 mi Calm Calm - N/A   Clear
1:55 AM 28.4 °F - 21.2 °F 74% 30.25 in 10.0 mi Calm Calm - N/A   Clear
2:15 AM 28.4 °F - 19.4 °F 69% 30.25 in 10.0 mi Calm Calm - N/A   Clear
2:35 AM 30.2 °F - 19.4 °F 64% 30.25 in 10.0 mi Calm Calm - N/A   Clear
2:55 AM 28.4 °F - 19.4 °F 69% 30.25 in 10.0 mi Calm Calm - N/A   Clear
3:15 AM 28.4 °F - 21.2 °F 74% 30.25 in 10.0 mi Calm Calm - N/A   Clear
3:35 AM 26.6 °F - 19.4 °F 74% 30.25 in 10.0 mi Calm Calm - N/A   Clear
3:55 AM 26.6 °F - 19.4 °F 74% 30.25 in 10.0 mi Calm Calm - N/A   Clear
4:15 AM 28.4 °F 24.6 °F 17.6 °F 64% 30.25 in 10.0 mi SE 3.5 mph - N/A   Clear
4:35 AM 28.4 °F - 19.4 °F 69% 30.25 in 10.0 mi Calm Calm - N/A   Clear
4:55 AM 28.4 °F - 21.2 °F 74% 30.26 in 10.0 mi Calm Calm - N/A   Clear
5:15 AM 28.4 °F - 19.4 °F 69% 30.26 in 10.0 mi Calm Calm - N/A   Clear
5:35 AM 26.6 °F - 19.4 °F 74% 30.26 in 10.0 mi Calm Calm - N/A   Clear
5:55 AM 24.8 °F 19.1 °F 17.6 °F 74% 30.26 in 10.0 mi SSE 4.6 mph - N/A   Clear
6:15 AM 24.8 °F - 19.4 °F 80% 30.26 in 10.0 mi Calm Calm - N/A   Clear
6:35 AM 26.6 °F - 21.2 °F 80% 30.26 in 10.0 mi Calm Calm - N/A   Clear
6:55 AM 26.6 °F - 19.4 °F 74% 30.27 in 10.0 mi Calm Calm - N/A   Clear
7:15 AM 28.4 °F - 21.2 °F 74% 30.27 in 10.0 mi Calm Calm - N/A   Clear
7:35 AM 26.6 °F - 19.4 °F 74% 30.27 in 10.0 mi Calm Calm - N/A   Clear
7:55 AM 28.4 °F - 21.2 °F 74% 30.28 in 10.0 mi Calm Calm - N/A   Clear
8:15 AM 32.0 °F - 21.2 °F 64% 30.28 in 10.0 mi Calm Calm - N/A   Clear
8:35 AM 33.8 °F - 23.0 °F 65% 30.27 in 10.0 mi Calm Calm - N/A   Clear
8:55 AM 35.6 °F - 23.0 °F 60% 30.27 in 10.0 mi Calm Calm - N/A   Clear
9:15 AM 37.4 °F - 23.0 °F 56% 30.27 in 10.0 mi Calm Calm - N/A   Clear
9:35 AM 39.2 °F 37.0 °F 23.0 °F 52% 30.26 in 10.0 mi WNW 3.5 mph - N/A   Clear
9:55 AM 42.8 °F - 24.8 °F 49% 30.26 in 10.0 mi Calm Calm - N/A   Clear
10:15 AM 44.6 °F 43.1 °F 23.0 °F 43% 30.26 in 10.0 mi South 3.5 mph - N/A   Clear
10:35 AM 46.4 °F - 23.0 °F 40% 30.25 in 10.0 mi Calm Calm - N/A   Clear
10:55 AM 48.2 °F - 23.0 °F 37% 30.24 in 10.0 mi Calm Calm - N/A   Clear
11:15 AM 51.8 °F - 23.0 °F 33% 30.23 in 10.0 mi Calm Calm - N/A   Clear
11:35 AM 51.8 °F - 24.8 °F 35% 30.22 in 10.0 mi South 3.5 mph - N/A   Clear
11:55 AM 55.4 °F - 24.8 °F 31% 30.21 in 10.0 mi East 3.5 mph - N/A   Clear
12:15 PM 55.4 °F - 23.0 °F 29% 30.20 in 10.0 mi Calm Calm - N/A   Clear
12:35 PM 57.2 °F - 21.2 °F 25% 30.19 in 10.0 mi West 4.6 mph - N/A   Clear
12:55 PM 60.8 °F - 23.0 °F 23% 30.18 in 10.0 mi NW 4.6 mph - N/A   Clear
1:15 PM 60.8 °F - 24.8 °F 25% 30.16 in 10.0 mi SW 6.9 mph - N/A   Clear
1:35 PM 62.6 °F - 23.0 °F 22% 30.15 in 10.0 mi SW 4.6 mph 18.4 mph N/A   Clear
1:55 PM 64.4 °F - 21.2 °F 19% 30.14 in 10.0 mi WSW 11.5 mph 24.2 mph N/A   Clear
2:15 PM 64.4 °F - 21.2 °F 19% 30.14 in 10.0 mi West 9.2 mph 19.6 mph N/A   Clear
2:35 PM 66.2 °F - 21.2 °F 18% 30.13 in 10.0 mi SSW 6.9 mph 23.0 mph N/A   Clear
2:55 PM 64.4 °F - 21.2 °F 19% 30.12 in 10.0 mi WSW 11.5 mph 20.7 mph N/A   Clear
3:15 PM 64.4 °F - 21.2 °F 19% 30.11 in 10.0 mi SW 11.5 mph 19.6 mph N/A   Partly Cloudy
3:35 PM 62.6 °F - 19.4 °F 19% 30.11 in 10.0 mi SSW 13.8 mph 24.2 mph N/A   Scattered Clouds
3:55 PM 59.0 °F - 21.2 °F 23% 30.12 in 10.0 mi SSW 3.5 mph 32.2 mph N/A   Mostly Cloudy
4:15 PM 60.8 °F - 23.0 °F 23% 30.11 in 10.0 mi NW 13.8 mph 25.3 mph N/A   Scattered Clouds
4:35 PM 60.8 °F - 23.0 °F 23% 30.11 in 10.0 mi WNW 10.4 mph - N/A   Partly Cloudy
4:55 PM 60.8 °F - 23.0 °F 23% 30.14 in 10.0 mi North 9.2 mph 26.5 mph N/A   Mostly Cloudy
5:15 PM 57.2 °F - 26.6 °F 31% 30.12 in 10.0 mi SW 4.6 mph - N/A   Mostly Cloudy
5:35 PM 57.2 °F - 24.8 °F 29% 30.11 in 10.0 mi West 4.6 mph - N/A   Partly Cloudy
5:55 PM 60.8 °F - 24.8 °F 25% 30.10 in 10.0 mi WSW 9.2 mph - N/A   Clear
6:15 PM 60.8 °F - 21.2 °F 22% 30.10 in 10.0 mi West 5.8 mph - N/A   Clear
6:35 PM 60.8 °F - 21.2 °F 22% 30.10 in 10.0 mi West 10.4 mph - N/A   Clear
6:55 PM 59.0 °F - 19.4 °F 22% 30.10 in 10.0 mi WSW 6.9 mph - N/A   Clear
7:15 PM 57.2 °F - 21.2 °F 25% 30.09 in 10.0 mi West 3.5 mph - N/A   Clear
7:35 PM 57.2 °F - 21.2 °F 25% 30.09 in 10.0 mi North 4.6 mph - N/A   Partly Cloudy
7:55 PM 53.6 °F - 21.2 °F 28% 30.11 in 10.0 mi West 3.5 mph - N/A   Scattered Clouds
8:15 PM 57.2 °F - 23.0 °F 27% 30.11 in 10.0 mi West 5.8 mph 21.9 mph N/A   Partly Cloudy
8:35 PM 55.4 °F - 21.2 °F 26% 30.12 in 10.0 mi WSW 4.6 mph - N/A   Partly Cloudy
8:55 PM 53.6 °F - 21.2 °F 28% 30.12 in 10.0 mi SW 5.8 mph - N/A   Mostly Cloudy
9:15 PM 53.6 °F - 21.2 °F 28% 30.13 in 10.0 mi WSW 5.8 mph - N/A   Scattered Clouds
9:35 PM 51.8 °F - 23.0 °F 33% 30.14 in 10.0 mi WSW 3.5 mph - N/A   Partly Cloudy
9:55 PM 51.8 °F - 24.8 °F 35% 30.15 in 10.0 mi Calm Calm - N/A   Clear
10:15 PM 51.8 °F - 24.8 °F 35% 30.16 in 10.0 mi North 4.6 mph - N/A   Clear
10:35 PM 50.0 °F - 24.8 °F 37% 30.15 in 10.0 mi NNW 4.6 mph - N/A   Clear
10:55 PM 48.2 °F - 24.8 °F 40% 30.15 in 10.0 mi NW 5.8 mph - N/A   Clear
11:15 PM 46.4 °F 45.2 °F 24.8 °F 43% 30.15 in 10.0 mi NW 3.5 mph - N/A   Clear
11:35 PM 46.4 °F 42.4 °F 24.8 °F 43% 30.16 in 10.0 mi SW 8.1 mph - N/A   Partly Cloudy
11:55 PM 46.4 °F 45.2 °F 24.8 °F 43% 30.16 in 10.0 mi NE 3.5 mph - N/A   Clear